Time,TemperatureF,DewpointF,PressureIn,WindDirection,WindDirectionDegrees,WindSpeedMPH,WindSpeedGustMPH,Humidity,HourlyPrecipIn,Conditions,Clouds,dailyrainin,SoftwareType,DateUTC
2013-01-16 00:02:00,18.4,12.0,29.94,SSW,203,5.4,7.4,76,0.00,,,0.00,WUHU216HW,2013-01-16 06:02:00,
2013-01-16 00:07:00,18.2,12.1,29.94,SSW,203,5.6,6.3,77,0.00,,,0.00,WUHU216HW,2013-01-16 06:07:00,
2013-01-16 00:12:00,18.0,11.9,29.94,SW,225,5.4,8.3,77,0.00,,,0.00,WUHU216HW,2013-01-16 06:12:00,
2013-01-16 00:17:00,17.8,11.7,29.93,SSW,203,7.6,8.7,77,0.00,,,0.00,WUHU216HW,2013-01-16 06:17:00,
2013-01-16 00:22:00,18.0,11.6,29.93,South,180,6.3,8.7,76,0.00,,,0.00,WUHU216HW,2013-01-16 06:22:00,
2013-01-16 00:27:00,17.8,11.4,29.93,WSW,248,7.8,8.7,76,0.00,,,0.00,WUHU216HW,2013-01-16 06:27:00,
2013-01-16 00:32:00,17.8,11.4,29.93,SW,225,6.0,8.7,76,0.00,,,0.00,WUHU216HW,2013-01-16 06:32:00,
2013-01-16 00:37:00,17.6,11.3,29.93,WSW,248,4.7,9.2,76,0.00,,,0.00,WUHU216HW,2013-01-16 06:37:00,
2013-01-16 00:42:00,17.6,11.3,29.92,SW,225,5.8,9.8,76,0.00,,,0.00,WUHU216HW,2013-01-16 06:42:00,
2013-01-16 00:47:00,17.6,11.3,29.92,SSW,203,7.4,9.8,76,0.00,,,0.00,WUHU216HW,2013-01-16 06:47:00,
2013-01-16 00:52:00,17.6,11.5,29.92,SSW,203,6.9,7.8,77,0.00,,,0.00,WUHU216HW,2013-01-16 06:52:00,
2013-01-16 00:57:00,17.5,11.4,29.92,SW,225,6.3,10.1,77,0.00,,,0.00,WUHU216HW,2013-01-16 06:57:00,
2013-01-16 01:02:00,17.5,11.4,29.92,SW,225,6.5,10.1,77,0.00,,,0.00,WUHU216HW,2013-01-16 07:02:00,
2013-01-16 01:07:00,17.3,10.9,29.92,SSW,203,5.6,8.5,76,0.00,,,0.00,WUHU216HW,2013-01-16 07:07:00,
2013-01-16 01:12:00,17.3,11.3,29.92,SW,225,5.6,8.5,77,0.00,,,0.00,WUHU216HW,2013-01-16 07:12:00,
2013-01-16 01:17:00,17.1,11.1,29.91,SW,225,6.7,7.6,77,0.00,,,0.00,WUHU216HW,2013-01-16 07:17:00,
2013-01-16 01:22:00,17.1,11.1,29.91,SW,225,6.5,8.1,77,0.00,,,0.00,WUHU216HW,2013-01-16 07:22:00,
2013-01-16 01:27:00,16.9,11.2,29.90,SW,225,5.6,8.1,78,0.00,,,0.00,WUHU216HW,2013-01-16 07:27:00,
2013-01-16 01:32:00,16.9,11.2,29.90,SSW,203,8.5,9.2,78,0.00,,,0.00,WUHU216HW,2013-01-16 07:32:00,
2013-01-16 01:37:00,17.1,11.1,29.90,SSW,203,8.5,9.6,77,0.00,,,0.00,WUHU216HW,2013-01-16 07:37:00,
2013-01-16 01:42:00,17.1,11.1,29.90,SSW,203,7.8,9.6,77,0.00,,,0.00,WUHU216HW,2013-01-16 07:42:00,
2013-01-16 01:47:00,17.3,11.3,29.89,South,180,8.1,8.9,77,0.00,,,0.00,WUHU216HW,2013-01-16 07:47:00,
2013-01-16 01:52:00,17.3,10.9,29.89,SW,225,6.3,10.1,76,0.00,,,0.00,WUHU216HW,2013-01-16 07:52:00,
2013-01-16 01:57:00,17.3,10.9,29.89,SW,225,6.9,10.3,76,0.00,,,0.00,WUHU216HW,2013-01-16 07:57:00,
2013-01-16 02:02:00,17.1,10.8,29.89,SSW,203,6.5,10.3,76,0.00,,,0.00,WUHU216HW,2013-01-16 08:02:00,
2013-01-16 02:07:00,17.1,10.8,29.89,SW,225,7.6,8.3,76,0.00,,,0.00,WUHU216HW,2013-01-16 08:07:00,
2013-01-16 02:12:00,16.9,10.6,29.89,SSW,203,8.1,8.3,76,0.00,,,0.00,WUHU216HW,2013-01-16 08:12:00,
2013-01-16 02:17:00,16.9,10.6,29.89,SSW,203,5.1,9.2,76,0.00,,,0.00,WUHU216HW,2013-01-16 08:17:00,
2013-01-16 02:22:00,16.9,10.6,29.89,SSW,203,8.5,9.2,76,0.00,,,0.00,WUHU216HW,2013-01-16 08:22:00,
2013-01-16 02:27:00,16.9,10.6,29.88,SSW,203,6.3,8.5,76,0.00,,,0.00,WUHU216HW,2013-01-16 08:27:00,
2013-01-16 02:32:00,16.9,10.6,29.88,SW,225,7.2,8.7,76,0.00,,,0.00,WUHU216HW,2013-01-16 08:32:00,
2013-01-16 02:37:00,16.9,10.6,29.88,SW,225,8.7,8.7,76,0.00,,,0.00,WUHU216HW,2013-01-16 08:37:00,
2013-01-16 02:42:00,16.9,10.6,29.88,SW,225,7.2,9.6,76,0.00,,,0.00,WUHU216HW,2013-01-16 08:42:00,
2013-01-16 02:47:00,17.1,10.8,29.88,SW,225,8.5,10.7,76,0.00,,,0.00,WUHU216HW,2013-01-16 08:47:00,
2013-01-16 02:52:00,17.1,10.4,29.87,SW,225,8.5,10.7,75,0.00,,,0.00,WUHU216HW,2013-01-16 08:52:00,
2013-01-16 02:57:00,17.3,10.6,29.87,SW,225,10.1,10.1,75,0.00,,,0.00,WUHU216HW,2013-01-16 08:57:00,
2013-01-16 03:02:00,17.5,10.8,29.87,SSW,203,7.8,10.1,75,0.00,,,0.00,WUHU216HW,2013-01-16 09:02:00,
2013-01-16 03:07:00,17.6,10.7,29.87,SW,225,8.9,10.5,74,0.00,,,0.00,WUHU216HW,2013-01-16 09:07:00,
2013-01-16 03:12:00,17.6,10.7,29.86,SW,225,10.3,10.5,74,0.00,,,0.00,WUHU216HW,2013-01-16 09:12:00,
2013-01-16 03:17:00,17.6,10.7,29.86,SW,225,7.4,10.3,74,0.00,,,0.00,WUHU216HW,2013-01-16 09:17:00,
2013-01-16 03:22:00,17.6,10.7,29.86,SSE,158,8.5,12.5,74,0.00,,,0.00,WUHU216HW,2013-01-16 09:22:00,
2013-01-16 03:27:00,17.6,10.7,29.85,SSW,203,8.9,12.5,74,0.00,,,0.00,WUHU216HW,2013-01-16 09:27:00,
2013-01-16 03:32:00,17.6,10.7,29.85,SW,225,8.1,10.3,74,0.00,,,0.00,WUHU216HW,2013-01-16 09:32:00,
2013-01-16 03:37:00,17.5,10.5,29.85,SW,225,9.4,10.5,74,0.00,,,0.00,WUHU216HW,2013-01-16 09:37:00,
2013-01-16 03:42:00,17.5,10.3,29.84,SSE,158,6.9,10.5,73,0.00,,,0.00,WUHU216HW,2013-01-16 09:42:00,
2013-01-16 03:47:00,17.5,10.3,29.83,SSW,203,8.5,10.7,73,0.00,,,0.00,WUHU216HW,2013-01-16 09:47:00,
2013-01-16 03:52:00,17.5,10.3,29.83,SSW,203,10.5,10.7,73,0.00,,,0.00,WUHU216HW,2013-01-16 09:52:00,
2013-01-16 03:56:00,17.6,10.5,29.83,SSE,158,10.5,10.7,73,0.00,,,0.00,WUHU216HW,2013-01-16 09:56:00,
2013-01-16 04:01:00,17.6,10.1,29.83,SW,225,9.4,11.6,72,0.00,,,0.00,WUHU216HW,2013-01-16 10:01:00,
2013-01-16 04:06:00,17.6,10.5,29.82,SSE,158,7.6,11.6,73,0.00,,,0.00,WUHU216HW,2013-01-16 10:06:00,
2013-01-16 04:11:00,17.5,9.9,29.81,SSW,203,10.5,11.0,72,0.00,,,0.00,WUHU216HW,2013-01-16 10:11:00,
2013-01-16 04:16:00,17.5,9.9,29.81,SW,225,8.3,11.0,72,0.00,,,0.00,WUHU216HW,2013-01-16 10:16:00,
2013-01-16 04:21:00,17.5,9.9,29.81,SW,225,8.5,12.1,72,0.00,,,0.00,WUHU216HW,2013-01-16 10:21:00,
2013-01-16 04:26:00,17.6,10.1,29.81,SSW,203,8.5,15.0,72,0.00,,,0.00,WUHU216HW,2013-01-16 10:26:00,
2013-01-16 04:31:00,17.6,9.8,29.81,SW,225,9.6,15.0,71,0.00,,,0.00,WUHU216HW,2013-01-16 10:31:00,
2013-01-16 04:36:00,17.6,9.8,29.81,SSW,203,8.5,13.4,71,0.00,,,0.00,WUHU216HW,2013-01-16 10:36:00,
2013-01-16 04:41:00,17.6,9.8,29.80,SSW,203,11.4,13.4,71,0.00,,,0.00,WUHU216HW,2013-01-16 10:41:00,
2013-01-16 04:46:00,17.8,10.0,29.80,SW,225,10.5,14.5,71,0.00,,,0.00,WUHU216HW,2013-01-16 10:46:00,
2013-01-16 04:51:00,18.0,10.2,29.81,SW,225,11.4,14.5,71,0.00,,,0.00,WUHU216HW,2013-01-16 10:51:00,
2013-01-16 04:56:00,17.8,10.0,29.81,SW,225,10.5,13.2,71,0.00,,,0.00,WUHU216HW,2013-01-16 10:56:00,
2013-01-16 05:01:00,17.8,10.0,29.81,SSW,203,8.7,12.3,71,0.00,,,0.00,WUHU216HW,2013-01-16 11:01:00,
2013-01-16 05:06:00,17.6,9.8,29.80,SW,225,8.1,12.3,71,0.00,,,0.00,WUHU216HW,2013-01-16 11:06:00,
2013-01-16 05:11:00,17.6,9.8,29.80,SW,225,8.5,11.0,71,0.00,,,0.00,WUHU216HW,2013-01-16 11:11:00,
2013-01-16 05:16:00,17.6,9.8,29.79,SSW,203,9.2,9.8,71,0.00,,,0.00,WUHU216HW,2013-01-16 11:16:00,
2013-01-16 05:21:00,17.6,9.8,29.79,SW,225,8.5,9.8,71,0.00,,,0.00,WUHU216HW,2013-01-16 11:21:00,
2013-01-16 05:26:00,17.5,9.6,29.78,SW,225,6.9,9.8,71,0.00,,,0.00,WUHU216HW,2013-01-16 11:26:00,
2013-01-16 05:31:00,17.5,9.9,29.78,SW,225,6.9,9.8,72,0.00,,,0.00,WUHU216HW,2013-01-16 11:31:00,
2013-01-16 05:36:00,17.3,9.7,29.78,WSW,248,5.6,9.2,72,0.00,,,0.00,WUHU216HW,2013-01-16 11:36:00,
2013-01-16 05:41:00,17.3,9.7,29.77,SSW,203,8.5,10.3,72,0.00,,,0.00,WUHU216HW,2013-01-16 11:41:00,
2013-01-16 05:46:00,17.3,9.7,29.77,SW,225,11.0,11.0,72,0.00,,,0.00,WUHU216HW,2013-01-16 11:46:00,
2013-01-16 05:51:00,17.5,9.6,29.76,SSW,203,12.1,12.1,71,0.00,,,0.00,WUHU216HW,2013-01-16 11:51:00,
2013-01-16 05:56:00,17.6,9.8,29.76,SW,225,8.7,12.1,71,0.00,,,0.00,WUHU216HW,2013-01-16 11:56:00,
2013-01-16 06:01:00,17.6,9.8,29.76,SW,225,13.0,13.0,71,0.00,,,0.00,WUHU216HW,2013-01-16 12:01:00,
2013-01-16 06:06:00,17.6,9.8,29.75,SSW,203,12.8,13.6,71,0.00,,,0.00,WUHU216HW,2013-01-16 12:06:00,
2013-01-16 06:11:00,17.6,9.8,29.75,SSW,203,10.1,13.6,71,0.00,,,0.00,WUHU216HW,2013-01-16 12:11:00,
2013-01-16 06:16:00,17.6,9.8,29.75,SW,225,8.7,15.0,71,0.00,,,0.00,WUHU216HW,2013-01-16 12:16:00,
2013-01-16 06:21:00,17.5,9.9,29.75,SSW,203,12.1,15.0,72,0.00,,,0.00,WUHU216HW,2013-01-16 12:21:00,
2013-01-16 06:26:00,17.6,10.1,29.75,SW,225,10.1,14.3,72,0.00,,,0.00,WUHU216HW,2013-01-16 12:26:00,
2013-01-16 06:31:00,17.6,10.1,29.75,SSW,203,10.1,14.3,72,0.00,,,0.00,WUHU216HW,2013-01-16 12:31:00,
2013-01-16 06:36:00,17.6,10.1,29.75,SSW,203,12.1,14.1,72,0.00,,,0.00,WUHU216HW,2013-01-16 12:36:00,
2013-01-16 06:41:00,17.6,10.1,29.75,SSW,203,9.8,12.8,72,0.00,,,0.00,WUHU216HW,2013-01-16 12:41:00,
2013-01-16 06:46:00,17.6,9.8,29.75,SW,225,11.0,13.6,71,0.00,,,0.00,WUHU216HW,2013-01-16 12:46:00,
2013-01-16 06:51:00,17.6,10.1,29.75,SW,225,6.5,13.6,72,0.00,,,0.00,WUHU216HW,2013-01-16 12:51:00,
2013-01-16 06:56:00,17.6,10.1,29.75,SW,225,7.8,13.6,72,0.00,,,0.00,WUHU216HW,2013-01-16 12:56:00,
2013-01-16 07:01:00,17.8,10.3,29.75,SSW,203,8.7,13.6,72,0.00,,,0.00,WUHU216HW,2013-01-16 13:01:00,
2013-01-16 07:06:00,17.8,10.3,29.75,SW,225,9.8,11.0,72,0.00,,,0.00,WUHU216HW,2013-01-16 13:06:00,
2013-01-16 07:11:00,18.0,10.4,29.75,SW,225,6.7,11.0,72,0.00,,,0.00,WUHU216HW,2013-01-16 13:11:00,
2013-01-16 07:16:00,18.4,10.8,29.75,SSW,203,6.7,11.9,72,0.00,,,0.00,WUHU216HW,2013-01-16 13:16:00,
2013-01-16 07:21:00,18.4,10.8,29.75,SW,225,7.2,11.9,72,0.00,,,0.00,WUHU216HW,2013-01-16 13:21:00,
2013-01-16 07:26:00,18.7,11.4,29.75,SW,225,6.9,10.1,73,0.00,,,0.00,WUHU216HW,2013-01-16 13:26:00,
2013-01-16 07:31:00,18.9,11.6,29.74,SSW,203,8.1,12.1,73,0.00,,,0.00,WUHU216HW,2013-01-16 13:31:00,
2013-01-16 07:36:00,19.1,11.7,29.75,SW,225,12.8,12.8,73,0.00,,,0.00,WUHU216HW,2013-01-16 13:36:00,
2013-01-16 07:41:00,19.4,12.1,29.74,SSW,203,9.8,12.8,73,0.00,,,0.00,WUHU216HW,2013-01-16 13:41:00,
2013-01-16 07:46:00,19.8,12.2,29.74,SSW,203,7.2,14.5,72,0.00,,,0.00,WUHU216HW,2013-01-16 13:46:00,
2013-01-16 07:51:00,20.2,12.5,29.73,SW,225,10.5,14.5,72,0.00,,,0.00,WUHU216HW,2013-01-16 13:51:00,
2013-01-16 07:56:00,20.5,12.9,29.73,SSW,203,11.6,14.1,72,0.00,,,0.00,WUHU216HW,2013-01-16 13:56:00,
2013-01-16 08:01:00,20.9,13.2,29.73,SSW,203,11.4,15.7,72,0.00,,,0.00,WUHU216HW,2013-01-16 14:01:00,
2013-01-16 08:06:00,21.1,13.1,29.72,SW,225,12.3,17.7,71,0.00,,,0.00,WUHU216HW,2013-01-16 14:06:00,
2013-01-16 08:11:00,21.2,13.2,29.72,SSW,203,11.2,18.6,71,0.00,,,0.00,WUHU216HW,2013-01-16 14:11:00,
2013-01-16 08:16:00,21.6,13.6,29.72,SSW,203,15.9,18.6,71,0.00,,,0.00,WUHU216HW,2013-01-16 14:16:00,
2013-01-16 08:21:00,21.6,13.6,29.72,SW,225,12.5,16.6,71,0.00,,,0.00,WUHU216HW,2013-01-16 14:21:00,
2013-01-16 08:26:00,22.0,14.0,29.72,SW,225,13.0,16.3,71,0.00,,,0.00,WUHU216HW,2013-01-16 14:26:00,
2013-01-16 08:31:00,22.3,14.3,29.72,SSW,203,12.1,17.7,71,0.00,,,0.00,WUHU216HW,2013-01-16 14:31:00,
2013-01-16 08:36:00,22.5,14.5,29.71,SW,225,13.2,17.7,71,0.00,,,0.00,WUHU216HW,2013-01-16 14:36:00,
2013-01-16 08:41:00,23.0,14.8,29.71,SSW,203,16.3,20.1,70,0.00,,,0.00,WUHU216HW,2013-01-16 14:41:00,
2013-01-16 08:46:00,23.4,15.1,29.71,WSW,248,15.4,21.5,70,0.00,,,0.00,WUHU216HW,2013-01-16 14:46:00,
2013-01-16 08:51:00,23.9,15.2,29.72,WSW,248,16.3,25.1,69,0.00,,,0.00,WUHU216HW,2013-01-16 14:51:00,
2013-01-16 08:56:00,24.1,15.4,29.72,SW,225,21.0,25.1,69,0.00,,,0.00,WUHU216HW,2013-01-16 14:56:00,
2013-01-16 09:01:00,24.1,15.4,29.71,SW,225,15.2,23.0,69,0.00,,,0.00,WUHU216HW,2013-01-16 15:01:00,
2013-01-16 09:06:00,24.5,15.8,29.71,SW,225,12.8,20.8,69,0.00,,,0.00,WUHU216HW,2013-01-16 15:06:00,
2013-01-16 09:11:00,24.8,16.0,29.70,SW,225,17.7,19.2,69,0.00,,,0.00,WUHU216HW,2013-01-16 15:11:00,
2013-01-16 09:16:00,25.0,16.2,29.71,WSW,248,12.1,19.2,69,0.00,,,0.00,WUHU216HW,2013-01-16 15:16:00,
2013-01-16 09:21:00,24.8,15.7,29.70,SW,225,18.3,19.5,68,0.00,,,0.00,WUHU216HW,2013-01-16 15:21:00,
2013-01-16 09:26:00,25.0,16.2,29.70,SW,225,13.4,20.1,69,0.00,,,0.00,WUHU216HW,2013-01-16 15:26:00,
2013-01-16 09:31:00,25.2,16.0,29.70,SW,225,15.4,21.0,68,0.00,,,0.00,WUHU216HW,2013-01-16 15:31:00,
2013-01-16 09:36:00,25.4,16.2,29.69,SW,225,12.5,21.0,68,0.00,,,0.00,WUHU216HW,2013-01-16 15:36:00,
2013-01-16 09:41:00,25.6,16.4,29.69,SW,225,11.4,18.3,68,0.00,,,0.00,WUHU216HW,2013-01-16 15:41:00,
2013-01-16 09:46:00,25.7,16.6,29.69,SW,225,12.1,18.3,68,0.00,,,0.00,WUHU216HW,2013-01-16 15:46:00,
2013-01-16 09:51:00,26.1,16.6,29.68,WSW,248,13.6,18.3,67,0.00,,,0.00,WUHU216HW,2013-01-16 15:51:00,
2013-01-16 09:56:00,26.3,16.4,29.68,WSW,248,15.9,22.1,66,0.00,,,0.00,WUHU216HW,2013-01-16 15:56:00,
2013-01-16 10:01:00,26.8,16.6,29.68,SW,225,12.8,22.1,65,0.00,,,0.00,WUHU216HW,2013-01-16 16:01:00,
2013-01-16 10:06:00,27.0,17.1,29.68,SW,225,12.5,20.6,66,0.00,,,0.00,WUHU216HW,2013-01-16 16:06:00,
2013-01-16 10:11:00,27.4,16.7,29.68,SW,225,15.7,20.1,64,0.00,,,0.00,WUHU216HW,2013-01-16 16:11:00,
2013-01-16 10:16:00,27.4,17.1,29.68,SW,225,12.1,20.1,65,0.00,,,0.00,WUHU216HW,2013-01-16 16:16:00,
2013-01-16 10:21:00,27.7,17.5,29.68,SW,225,13.4,18.8,65,0.00,,,0.00,WUHU216HW,2013-01-16 16:21:00,
2013-01-16 10:26:00,28.3,17.6,29.68,WSW,248,14.8,21.5,64,0.00,,,0.00,WUHU216HW,2013-01-16 16:26:00,
2013-01-16 10:31:00,28.4,17.8,29.68,SW,225,11.9,21.5,64,0.00,,,0.00,WUHU216HW,2013-01-16 16:31:00,
2013-01-16 10:36:00,29.0,18.3,29.68,WSW,248,17.2,20.4,64,0.00,,,0.00,WUHU216HW,2013-01-16 16:36:00,
2013-01-16 10:41:00,29.3,18.3,29.68,SW,225,18.1,21.9,63,0.00,,,0.00,WUHU216HW,2013-01-16 16:41:00,
2013-01-16 10:46:00,29.5,19.2,29.68,SW,225,19.9,23.5,65,0.00,,,0.00,WUHU216HW,2013-01-16 16:46:00,
2013-01-16 10:51:00,29.3,19.0,29.68,WSW,248,21.9,26.2,65,0.00,,,0.00,WUHU216HW,2013-01-16 16:51:00,
2013-01-16 10:56:00,29.5,19.5,29.68,WSW,248,22.6,26.2,66,0.00,,,0.00,WUHU216HW,2013-01-16 16:56:00,
2013-01-16 11:01:00,29.9,19.8,29.68,WSW,248,13.4,24.8,66,0.00,,,0.00,WUHU216HW,2013-01-16 17:01:00,
2013-01-16 11:06:00,29.9,19.8,29.67,WSW,248,19.9,22.6,66,0.00,,,0.00,WUHU216HW,2013-01-16 17:06:00,
2013-01-16 11:11:00,29.9,19.8,29.67,WSW,248,16.1,25.5,66,0.00,,,0.00,WUHU216HW,2013-01-16 17:11:00,
2013-01-16 11:16:00,29.9,19.8,29.67,WSW,248,18.1,25.7,66,0.00,,,0.00,WUHU216HW,2013-01-16 17:16:00,
2013-01-16 11:21:00,29.9,20.2,29.68,SW,225,20.1,25.7,67,0.00,,,0.00,WUHU216HW,2013-01-16 17:21:00,
2013-01-16 11:26:00,30.2,20.2,29.68,WSW,248,19.2,21.7,66,0.00,,,0.00,WUHU216HW,2013-01-16 17:26:00,
2013-01-16 11:31:00,29.9,19.8,29.67,WSW,248,17.2,21.5,66,0.00,,,0.00,WUHU216HW,2013-01-16 17:31:00,
2013-01-16 11:36:00,29.9,20.2,29.67,WSW,248,15.7,21.5,67,0.00,,,0.00,WUHU216HW,2013-01-16 17:36:00,
2013-01-16 11:41:00,30.2,20.9,29.67,SW,225,17.2,21.5,68,0.00,,,0.00,WUHU216HW,2013-01-16 17:41:00,
2013-01-16 11:46:00,30.2,20.9,29.67,West,270,15.0,22.1,68,0.00,,,0.00,WUHU216HW,2013-01-16 17:46:00,
2013-01-16 11:51:00,30.4,21.4,29.66,WSW,248,17.0,22.1,69,0.00,,,0.00,WUHU216HW,2013-01-16 17:51:00,
2013-01-16 11:56:00,30.4,21.4,29.66,WSW,248,16.6,22.1,69,0.00,,,0.00,WUHU216HW,2013-01-16 17:56:00,
2013-01-16 12:01:00,30.4,21.8,29.66,WSW,248,15.7,22.4,70,0.00,,,0.00,WUHU216HW,2013-01-16 18:01:00,
2013-01-16 12:06:00,30.4,21.8,29.65,WSW,248,17.9,23.7,70,0.00,,,0.00,WUHU216HW,2013-01-16 18:06:00,
2013-01-16 12:11:00,30.6,22.0,29.66,SW,225,17.9,23.7,70,0.00,,,0.00,WUHU216HW,2013-01-16 18:11:00,
2013-01-16 12:16:00,30.8,22.1,29.66,WSW,248,20.8,20.8,70,0.00,,,0.00,WUHU216HW,2013-01-16 18:16:00,
2013-01-16 12:21:00,31.0,22.3,29.66,WSW,248,18.1,24.4,70,0.00,,,0.00,WUHU216HW,2013-01-16 18:21:00,
2013-01-16 12:26:00,31.0,22.7,29.66,SW,225,17.2,24.4,71,0.00,,,0.00,WUHU216HW,2013-01-16 18:26:00,
2013-01-16 12:31:00,31.0,22.7,29.67,West,270,15.9,21.5,71,0.00,,,0.00,WUHU216HW,2013-01-16 18:31:00,
2013-01-16 12:36:00,30.6,23.0,29.67,WSW,248,18.3,19.9,73,0.00,,,0.00,WUHU216HW,2013-01-16 18:36:00,
2013-01-16 12:41:00,30.6,24.0,29.66,WSW,248,19.7,22.8,76,0.00,,,0.00,WUHU216HW,2013-01-16 18:41:00,
2013-01-16 12:46:00,30.4,24.4,29.66,WSW,248,15.9,22.8,78,0.00,,,0.00,WUHU216HW,2013-01-16 18:46:00,
2013-01-16 12:51:00,30.2,24.2,29.67,WSW,248,12.1,20.6,78,0.00,,,0.00,WUHU216HW,2013-01-16 18:51:00,
2013-01-16 12:56:00,30.4,24.4,29.67,SW,225,17.0,20.1,78,0.00,,,0.00,WUHU216HW,2013-01-16 18:56:00,
2013-01-16 13:01:00,30.4,24.4,29.67,WSW,248,14.5,20.1,78,0.00,,,0.00,WUHU216HW,2013-01-16 19:01:00,
2013-01-16 13:06:00,30.6,24.6,29.67,WSW,248,18.1,23.0,78,0.00,,,0.00,WUHU216HW,2013-01-16 19:06:00,
2013-01-16 13:11:00,30.6,24.6,29.66,WSW,248,11.9,23.0,78,0.00,,,0.00,WUHU216HW,2013-01-16 19:11:00,
2013-01-16 13:16:00,31.0,24.9,29.66,WSW,248,9.6,18.3,78,0.00,,,0.00,WUHU216HW,2013-01-16 19:16:00,
2013-01-16 13:21:00,31.3,24.9,29.66,WSW,248,12.5,17.9,77,0.00,,,0.00,WUHU216HW,2013-01-16 19:21:00,
2013-01-16 13:26:00,31.1,24.8,29.67,WSW,248,15.9,18.1,77,0.00,,,0.00,WUHU216HW,2013-01-16 19:26:00,
2013-01-16 13:31:00,31.3,24.9,29.67,WSW,248,10.7,18.1,77,0.00,,,0.00,WUHU216HW,2013-01-16 19:31:00,
2013-01-16 13:36:00,31.5,24.9,29.67,WSW,248,16.6,20.1,76,0.00,,,0.00,WUHU216HW,2013-01-16 19:36:00,
2013-01-16 13:41:00,31.7,25.0,29.67,WSW,248,11.2,20.1,76,0.00,,,0.00,WUHU216HW,2013-01-16 19:41:00,
2013-01-16 13:46:00,31.9,25.2,29.67,SW,225,11.4,19.0,76,0.00,,,0.00,WUHU216HW,2013-01-16 19:46:00,
2013-01-16 13:51:00,31.7,25.0,29.67,SW,225,19.7,20.6,76,0.00,,,0.00,WUHU216HW,2013-01-16 19:51:00,
2013-01-16 13:56:00,31.5,24.9,29.68,West,270,13.9,20.6,76,0.00,,,0.00,WUHU216HW,2013-01-16 19:56:00,
2013-01-16 14:01:00,31.5,24.9,29.68,WSW,248,17.2,20.1,76,0.00,,,0.00,WUHU216HW,2013-01-16 20:01:00,
2013-01-16 14:06:00,31.7,25.3,29.68,WSW,248,16.6,17.4,77,0.00,,,0.00,WUHU216HW,2013-01-16 20:06:00,
2013-01-16 14:11:00,31.5,25.1,29.68,WSW,248,17.2,18.1,77,0.00,,,0.00,WUHU216HW,2013-01-16 20:11:00,
2013-01-16 14:16:00,31.7,25.3,29.68,SW,225,11.9,18.1,77,0.00,,,0.00,WUHU216HW,2013-01-16 20:16:00,
2013-01-16 14:21:00,31.7,25.7,29.69,SW,225,16.3,17.2,78,0.00,,,0.00,WUHU216HW,2013-01-16 20:21:00,
2013-01-16 14:26:00,31.7,25.7,29.69,WSW,248,17.0,17.0,78,0.00,,,0.00,WUHU216HW,2013-01-16 20:26:00,
2013-01-16 14:31:00,31.7,25.7,29.69,WSW,248,16.8,18.1,78,0.00,,,0.00,WUHU216HW,2013-01-16 20:31:00,
2013-01-16 14:36:00,31.5,25.5,29.69,WSW,248,15.0,18.1,78,0.00,,,0.00,WUHU216HW,2013-01-16 20:36:00,
2013-01-16 14:41:00,31.5,25.5,29.69,WSW,248,14.3,17.9,78,0.00,,,0.00,WUHU216HW,2013-01-16 20:41:00,
2013-01-16 14:46:00,31.5,25.5,29.69,WSW,248,13.6,19.0,78,0.00,,,0.00,WUHU216HW,2013-01-16 20:46:00,
2013-01-16 14:51:00,31.5,25.7,29.69,West,270,13.4,19.0,79,0.00,,,0.00,WUHU216HW,2013-01-16 20:51:00,
2013-01-16 14:56:00,31.7,25.7,29.69,WSW,248,12.1,17.9,78,0.00,,,0.00,WUHU216HW,2013-01-16 20:56:00,
2013-01-16 15:01:00,31.7,25.7,29.69,WSW,248,8.1,15.9,78,0.00,,,0.00,WUHU216HW,2013-01-16 21:01:00,
2013-01-16 15:06:00,31.7,25.7,29.70,WSW,248,11.6,15.9,78,0.00,,,0.00,WUHU216HW,2013-01-16 21:06:00,
2013-01-16 15:11:00,31.9,25.8,29.70,West,270,9.8,14.5,78,0.00,,,0.00,WUHU216HW,2013-01-16 21:11:00,
2013-01-16 15:16:00,31.9,25.8,29.71,WSW,248,6.3,13.4,78,0.00,,,0.00,WUHU216HW,2013-01-16 21:16:00,
2013-01-16 15:21:00,31.7,25.7,29.71,WSW,248,8.9,19.2,78,0.00,,,0.00,WUHU216HW,2013-01-16 21:21:00,
2013-01-16 15:26:00,31.7,25.7,29.71,SW,225,7.6,19.2,78,0.00,,,0.00,WUHU216HW,2013-01-16 21:26:00,
2013-01-16 15:31:00,31.9,25.8,29.71,WSW,248,9.2,12.3,78,0.00,,,0.00,WUHU216HW,2013-01-16 21:31:00,
2013-01-16 15:36:00,31.9,25.8,29.72,SW,225,9.6,12.1,78,0.00,,,0.00,WUHU216HW,2013-01-16 21:36:00,
2013-01-16 15:41:00,31.9,25.8,29.72,WSW,248,7.4,12.1,78,0.00,,,0.00,WUHU216HW,2013-01-16 21:41:00,
2013-01-16 15:46:00,31.9,25.8,29.72,WSW,248,9.8,11.4,78,0.00,,,0.00,WUHU216HW,2013-01-16 21:46:00,
2013-01-16 15:51:00,32.0,26.0,29.73,SW,225,9.8,13.2,78,0.00,,,0.00,WUHU216HW,2013-01-16 21:51:00,
2013-01-16 15:56:00,32.0,26.0,29.73,West,270,8.1,14.5,78,0.00,,,0.00,WUHU216HW,2013-01-16 21:56:00,
2013-01-16 16:01:00,32.0,26.3,29.74,West,270,11.4,14.5,79,0.00,,,0.00,WUHU216HW,2013-01-16 22:01:00,
2013-01-16 16:06:00,32.0,26.0,29.74,WSW,248,7.2,14.3,78,0.00,,,0.00,WUHU216HW,2013-01-16 22:06:00,
2013-01-16 16:11:00,32.0,26.6,29.74,WSW,248,6.5,11.4,80,0.00,,,0.00,WUHU216HW,2013-01-16 22:11:00,
2013-01-16 16:16:00,32.0,26.3,29.75,WSW,248,4.0,9.4,79,0.00,,,0.00,WUHU216HW,2013-01-16 22:16:00,
2013-01-16 16:21:00,32.0,26.3,29.75,WSW,248,4.3,9.2,79,0.00,,,0.00,WUHU216HW,2013-01-16 22:21:00,
2013-01-16 16:26:00,32.0,26.3,29.75,NW,315,3.8,8.7,79,0.00,,,0.00,WUHU216HW,2013-01-16 22:26:00,
2013-01-16 16:31:00,32.0,26.3,29.75,WSW,248,4.7,7.2,79,0.00,,,0.00,WUHU216HW,2013-01-16 22:31:00,
2013-01-16 16:36:00,32.0,26.6,29.75,WSW,248,4.9,8.5,80,0.00,,,0.00,WUHU216HW,2013-01-16 22:36:00,
2013-01-16 16:41:00,32.0,26.6,29.76,WSW,248,5.4,8.5,80,0.00,,,0.00,WUHU216HW,2013-01-16 22:41:00,
2013-01-16 16:46:00,32.0,26.6,29.76,WSW,248,5.6,8.5,80,0.00,,,0.00,WUHU216HW,2013-01-16 22:46:00,
2013-01-16 16:50:00,32.0,26.6,29.77,WSW,248,4.7,8.9,80,0.00,,,0.00,WUHU216HW,2013-01-16 22:50:00,
2013-01-16 16:56:00,32.0,26.6,29.77,WSW,248,3.4,8.9,80,0.00,,,0.00,WUHU216HW,2013-01-16 22:56:00,
2013-01-16 17:00:00,32.0,26.6,29.77,West,270,2.5,6.3,80,0.00,,,0.00,WUHU216HW,2013-01-16 23:00:00,
2013-01-16 17:05:00,32.0,26.6,29.78,WSW,248,6.3,6.3,80,0.00,,,0.00,WUHU216HW,2013-01-16 23:05:00,
2013-01-16 17:10:00,32.0,26.6,29.77,WSW,248,3.8,6.3,80,0.00,,,0.00,WUHU216HW,2013-01-16 23:10:00,
2013-01-16 17:15:00,32.0,26.9,29.77,WSW,248,3.4,6.3,81,0.00,,,0.00,WUHU216HW,2013-01-16 23:15:00,
2013-01-16 17:20:00,32.0,26.3,29.78,WSW,248,4.9,5.4,79,0.00,,,0.00,WUHU216HW,2013-01-16 23:20:00,
2013-01-16 17:25:00,32.0,26.3,29.78,West,270,3.1,5.4,79,0.00,,,0.00,WUHU216HW,2013-01-16 23:25:00,
2013-01-16 17:30:00,32.0,26.3,29.78,West,270,3.1,4.7,79,0.00,,,0.00,WUHU216HW,2013-01-16 23:30:00,
2013-01-16 17:35:00,32.0,26.6,29.78,NW,315,5.1,5.1,80,0.00,,,0.00,WUHU216HW,2013-01-16 23:35:00,
2013-01-16 17:40:00,32.0,26.3,29.79,SW,225,2.9,5.1,79,0.00,,,0.00,WUHU216HW,2013-01-16 23:40:00,
2013-01-16 17:45:00,32.0,26.3,29.79,SW,225,2.2,4.3,79,0.00,,,0.00,WUHU216HW,2013-01-16 23:45:00,
2013-01-16 17:50:00,32.0,26.3,29.79,SW,225,4.0,4.7,79,0.00,,,0.00,WUHU216HW,2013-01-16 23:50:00,
2013-01-16 17:55:00,32.0,26.3,29.80,SW,225,4.9,5.6,79,0.00,,,0.00,WUHU216HW,2013-01-16 23:55:00,
2013-01-16 18:00:00,31.9,26.1,29.80,WSW,248,5.6,6.3,79,0.00,,,0.00,WUHU216HW,2013-01-17 00:00:00,
2013-01-16 18:05:00,31.9,26.5,29.81,WSW,248,4.7,6.3,80,0.00,,,0.00,WUHU216HW,2013-01-17 00:05:00,
2013-01-16 18:10:00,31.9,26.5,29.81,WSW,248,4.0,5.6,80,0.00,,,0.00,WUHU216HW,2013-01-17 00:10:00,
2013-01-16 18:15:00,31.9,26.5,29.81,WSW,248,5.1,5.8,80,0.00,,,0.00,WUHU216HW,2013-01-17 00:15:00,
2013-01-16 18:20:00,31.9,26.5,29.81,WSW,248,2.7,5.8,80,0.00,,,0.00,WUHU216HW,2013-01-17 00:20:00,
2013-01-16 18:25:00,31.9,26.5,29.81,WSW,248,3.4,5.4,80,0.00,,,0.00,WUHU216HW,2013-01-17 00:25:00,
2013-01-16 18:30:00,31.9,26.5,29.81,WSW,248,4.5,4.7,80,0.00,,,0.00,WUHU216HW,2013-01-17 00:30:00,
2013-01-16 18:35:00,31.9,26.7,29.81,WSW,248,4.5,5.1,81,0.00,,,0.00,WUHU216HW,2013-01-17 00:35:00,
2013-01-16 18:40:00,31.9,26.7,29.81,WSW,248,3.4,5.1,81,0.00,,,0.00,WUHU216HW,2013-01-17 00:40:00,
2013-01-16 18:45:00,32.0,26.9,29.82,WSW,248,4.0,4.9,81,0.00,,,0.00,WUHU216HW,2013-01-17 00:45:00,
2013-01-16 18:50:00,32.0,27.2,29.82,WSW,248,3.6,4.9,82,0.00,,,0.00,WUHU216HW,2013-01-17 00:50:00,
2013-01-16 18:55:00,32.0,27.2,29.82,WSW,248,3.8,4.9,82,0.00,,,0.00,WUHU216HW,2013-01-17 00:55:00,
2013-01-16 19:00:00,32.0,27.2,29.82,SW,225,3.4,4.9,82,0.00,,,0.00,WUHU216HW,2013-01-17 01:00:00,
2013-01-16 19:05:00,32.0,26.9,29.83,WSW,248,4.7,5.4,81,0.00,,,0.00,WUHU216HW,2013-01-17 01:05:00,
2013-01-16 19:10:00,32.0,26.9,29.83,WSW,248,3.4,5.4,81,0.00,,,0.00,WUHU216HW,2013-01-17 01:10:00,
2013-01-16 19:15:00,32.2,27.4,29.83,SW,225,3.1,4.7,82,0.00,,,0.00,WUHU216HW,2013-01-17 01:15:00,
2013-01-16 19:20:00,32.2,27.4,29.83,SW,225,3.8,3.8,82,0.00,,,0.00,WUHU216HW,2013-01-17 01:20:00,
2013-01-16 19:25:00,32.2,27.1,29.83,WSW,248,4.7,5.4,81,0.00,,,0.00,WUHU216HW,2013-01-17 01:25:00,
2013-01-16 19:30:00,32.2,27.1,29.84,WSW,248,4.0,5.4,81,0.00,,,0.00,WUHU216HW,2013-01-17 01:30:00,
2013-01-16 19:35:00,32.4,27.5,29.84,WSW,248,4.5,5.6,82,0.00,,,0.00,WUHU216HW,2013-01-17 01:35:00,
2013-01-16 19:40:00,32.4,27.5,29.85,WSW,248,4.7,5.6,82,0.00,,,0.00,WUHU216HW,2013-01-17 01:40:00,
2013-01-16 19:45:00,32.4,27.5,29.85,WSW,248,2.9,5.1,82,0.00,,,0.00,WUHU216HW,2013-01-17 01:45:00,
2013-01-16 19:50:00,32.4,27.5,29.84,WSW,248,2.9,5.1,82,0.00,,,0.00,WUHU216HW,2013-01-17 01:50:00,
2013-01-16 19:55:00,32.6,27.7,29.84,SW,225,4.5,4.9,82,0.00,,,0.00,WUHU216HW,2013-01-17 01:55:00,
2013-01-16 20:00:00,32.6,27.5,29.85,West,270,2.5,4.9,81,0.00,,,0.00,WUHU216HW,2013-01-17 02:00:00,
2013-01-16 20:05:00,32.6,27.5,29.85,WNW,293,1.6,4.7,81,0.00,,,0.00,WUHU216HW,2013-01-17 02:05:00,
2013-01-16 20:10:00,32.8,27.9,29.85,West,270,1.3,2.5,82,0.00,,,0.00,WUHU216HW,2013-01-17 02:10:00,
2013-01-16 20:15:00,32.8,27.9,29.86,WNW,293,1.6,2.7,82,0.00,,,0.00,WUHU216HW,2013-01-17 02:15:00,
2013-01-16 20:20:00,32.8,27.9,29.86,WSW,248,2.5,3.1,82,0.00,,,0.00,WUHU216HW,2013-01-17 02:20:00,
2013-01-16 20:25:00,32.8,27.9,29.86,WSW,248,2.5,3.1,82,0.00,,,0.00,WUHU216HW,2013-01-17 02:25:00,
2013-01-16 20:30:00,32.8,27.5,29.86,WSW,248,1.8,3.1,81,0.00,,,0.00,WUHU216HW,2013-01-17 02:30:00,
2013-01-16 20:35:00,32.8,27.9,29.86,WSW,248,2.5,3.8,82,0.00,,,0.00,WUHU216HW,2013-01-17 02:35:00,
2013-01-16 20:40:00,32.8,27.5,29.87,WSW,248,1.8,3.8,81,0.00,,,0.00,WUHU216HW,2013-01-17 02:40:00,
2013-01-16 20:45:00,32.8,27.5,29.88,NNW,338,0.0,3.6,81,0.00,,,0.00,WUHU216HW,2013-01-17 02:45:00,
2013-01-16 20:50:00,32.8,27.5,29.88,WSW,248,1.6,2.9,81,0.00,,,0.00,WUHU216HW,2013-01-17 02:50:00,
2013-01-16 20:55:00,32.8,27.5,29.88,NW,315,2.7,2.9,81,0.00,,,0.00,WUHU216HW,2013-01-17 02:55:00,
2013-01-16 21:00:00,32.8,27.9,29.88,NNW,338,3.4,3.4,82,0.00,,,0.00,WUHU216HW,2013-01-17 03:00:00,
2013-01-16 21:05:00,32.8,27.9,29.88,NW,315,2.2,3.4,82,0.00,,,0.00,WUHU216HW,2013-01-17 03:05:00,
2013-01-16 21:10:00,32.8,28.2,29.88,NW,315,3.6,3.8,83,0.00,,,0.00,WUHU216HW,2013-01-17 03:10:00,
2013-01-16 21:15:00,32.8,27.9,29.89,West,270,1.1,3.8,82,0.00,,,0.00,WUHU216HW,2013-01-17 03:15:00,
2013-01-16 21:20:00,32.8,28.2,29.89,NW,315,2.7,3.6,83,0.00,,,0.00,WUHU216HW,2013-01-17 03:20:00,
2013-01-16 21:25:00,32.8,28.2,29.89,West,270,1.1,4.3,83,0.00,,,0.00,WUHU216HW,2013-01-17 03:25:00,
2013-01-16 21:30:00,32.8,28.2,29.89,NW,315,2.9,4.7,83,0.00,,,0.00,WUHU216HW,2013-01-17 03:30:00,
2013-01-16 21:35:00,32.8,28.2,29.91,WNW,293,4.3,6.9,83,0.00,,,0.00,WUHU216HW,2013-01-17 03:35:00,
2013-01-16 21:40:00,32.9,28.0,29.91,NNW,338,6.5,10.1,82,0.00,,,0.00,WUHU216HW,2013-01-17 03:40:00,
2013-01-16 21:45:00,33.1,27.9,29.92,WNW,293,8.9,10.1,81,0.00,,,0.00,WUHU216HW,2013-01-17 03:45:00,
2013-01-16 21:50:00,33.1,27.6,29.92,NW,315,8.7,9.2,80,0.00,,,0.00,WUHU216HW,2013-01-17 03:50:00,
2013-01-16 21:55:00,33.1,27.3,29.92,WNW,293,5.4,9.4,79,0.00,,,0.00,WUHU216HW,2013-01-17 03:55:00,
2013-01-16 22:00:00,32.9,26.5,29.92,North,0,5.1,14.8,77,0.00,,,0.00,WUHU216HW,2013-01-17 04:00:00,
2013-01-16 22:05:00,32.6,25.8,29.92,NW,315,9.4,17.9,76,0.00,,,0.00,WUHU216HW,2013-01-17 04:05:00,
2013-01-16 22:10:00,32.0,25.4,29.92,NW,315,8.3,17.9,76,0.00,,,0.00,WUHU216HW,2013-01-17 04:10:00,
2013-01-16 22:15:00,31.5,24.9,29.92,North,0,7.2,15.0,76,0.00,,,0.00,WUHU216HW,2013-01-17 04:15:00,
2013-01-16 22:20:00,31.1,24.1,29.93,NW,315,9.2,15.0,75,0.00,,,0.00,WUHU216HW,2013-01-17 04:20:00,
2013-01-16 22:25:00,30.8,23.8,29.93,NW,315,4.0,13.4,75,0.00,,,0.00,WUHU216HW,2013-01-17 04:25:00,
2013-01-16 22:30:00,30.4,23.8,29.93,NNW,338,4.7,13.4,76,0.00,,,0.00,WUHU216HW,2013-01-17 04:30:00,
2013-01-16 22:35:00,30.2,23.6,29.94,NNW,338,6.5,8.9,76,0.00,,,0.00,WUHU216HW,2013-01-17 04:35:00,
2013-01-16 22:40:00,29.9,23.2,29.94,WNW,293,1.8,8.1,76,0.00,,,0.00,WUHU216HW,2013-01-17 04:40:00,
2013-01-16 22:45:00,29.9,22.9,29.94,North,0,3.4,10.1,75,0.00,,,0.00,WUHU216HW,2013-01-17 04:45:00,
2013-01-16 22:50:00,29.5,22.5,29.94,North,0,7.2,10.1,75,0.00,,,0.00,WUHU216HW,2013-01-17 04:50:00,
2013-01-16 22:55:00,29.3,22.4,29.94,NNW,338,3.1,9.4,75,0.00,,,0.00,WUHU216HW,2013-01-17 04:55:00,
2013-01-16 23:01:00,29.2,22.2,29.94,NNE,23,6.3,6.7,75,0.00,,,0.00,WUHU216HW,2013-01-17 05:01:00,
2013-01-16 23:02:00,29.2,22.2,29.94,NNE,23,3.6,7.2,75,0.00,,,0.00,WUHU216HW,2013-01-17 05:02:00,
2013-01-16 23:03:00,29.0,22.1,29.94,NNE,23,3.8,6.7,75,0.00,,,0.00,WUHU216HW,2013-01-17 05:03:00,
2013-01-16 23:08:00,28.8,21.9,29.94,NNE,23,2.7,8.7,75,0.00,,,0.00,WUHU216HW,2013-01-17 05:08:00,
2013-01-16 23:13:00,28.6,21.7,29.94,North,0,7.4,8.7,75,0.00,,,0.00,WUHU216HW,2013-01-17 05:13:00,
2013-01-16 23:18:00,28.4,21.8,29.94,NNE,23,5.4,8.1,76,0.00,,,0.00,WUHU216HW,2013-01-17 05:18:00,
2013-01-16 23:23:00,28.3,21.3,29.94,NNE,23,4.0,7.4,75,0.00,,,0.00,WUHU216HW,2013-01-17 05:23:00,
2013-01-16 23:28:00,27.9,21.0,29.94,NW,315,4.9,6.9,75,0.00,,,0.00,WUHU216HW,2013-01-17 05:28:00,
2013-01-16 23:33:00,27.7,21.1,29.95,NNE,23,7.2,7.2,76,0.00,,,0.00,WUHU216HW,2013-01-17 05:33:00,
2013-01-16 23:38:00,27.7,21.1,29.95,NNE,23,4.0,7.2,76,0.00,,,0.00,WUHU216HW,2013-01-17 05:38:00,
2013-01-16 23:43:00,27.5,21.3,29.95,NNW,338,5.4,7.2,77,0.00,,,0.00,WUHU216HW,2013-01-17 05:43:00,
2013-01-16 23:48:00,27.2,20.9,29.95,NNW,338,3.4,5.4,77,0.00,,,0.00,WUHU216HW,2013-01-17 05:48:00,
2013-01-16 23:53:00,27.0,20.7,29.95,NW,315,3.8,6.5,77,0.00,,,0.00,WUHU216HW,2013-01-17 05:53:00,
2013-01-16 23:58:00,27.0,21.0,29.95,North,0,4.3,6.7,78,0.00,,,0.00,WUHU216HW,2013-01-17 05:58:00,